Content
SEND FEEDBACK

Daily
Averages
Monthly
Summary
United States of America

FAYETTEVILLE, TENNESSEE


Home > North America > United States > Tennessee
Elevation: 700 feet     Latitude: 35 10N     Longitude: 086 33W

WEATHER
 
SELECT A DAY
Number of Records: 305,723;   Date Range: 4/22/02 - 10/24/14
 
SHARE

PRINT THIS DATA

[ ← Previous Day ]
WEATHER ALMANAC - OCTOBER 18, 2013
[ Next Day → ]
[ °C ]   °F
Weather ElementAverageHighLow
Temperature52.1 °F62.6 °F (1:35 pm)44.6 °F (2:15 am)
Dewpoint46 °F55.4 °F (12:35 pm)41 °F (2:55 pm)
Humidity82.3 %100 % (2:15 am)45 % (2:55 pm)
Barometer30.04 in30.10 in (8:55 am)29.98 in (5:15 pm)
Wind Speed0.7 mph6.9 mph (3:35 pm)
Weather ElementAverage
Visibility5.8 mi
Wind DirectionNE (47.2 °)

Weather ElementTotal
Precipitation---
Heating Degree Days11.4 (Base 65)
Growing Degree Days3.6 (Base 50)
Averaged from 71 records on October 18, 2013
WEATHER CONDITIONS BREAKOUT
WIND DIRECTION BREAKOUT
WEATHER BY HOUR - OCTOBER 18, 2013
[ °C ]   °F
Local TimeTemperatureDewpointHumidityBarometerVisibilityWind DirectionWind SpeedGust SpeedPrecipitationEventsConditions
12:35 AM46.4 °F44.6 °F93 %30.02 in0.2 miCalmFogFog
12:55 AM46.4 °F44.6 °F93 %30.02 in0.2 miCalmFogFog
1:15 AM46.4 °F44.6 °F93 %30.02 in0.2 miCalmFogFog
1:35 AM46.4 °F44.6 °F93 %30.02 in0.2 miCalmFogFog
1:55 AM46.4 °F44.6 °F93 %30.02 in0.2 miCalmFogFog
2:15 AM44.6 °F44.6 °F100 %30.02 in0.5 miCalmFogFog
2:35 AM44.6 °F42.8 °F93 %30.02 in0.2 miCalmFogFog
2:55 AM46.4 °F44.6 °F93 %30.02 in0.2 miCalmFogFog
3:15 AM44.6 °F42.8 °F93 %30.02 in0.2 miCalmFogFog
3:35 AM46.4 °F44.6 °F93 %30.02 in0.5 miCalmFogFog
3:55 AM46.4 °F44.6 °F93 %30.02 in0.2 miCalmFogFog
4:15 AM46.4 °F44.6 °F93 %30.03 in0.2 miCalmFogFog
4:35 AM46.4 °F44.6 °F93 %30.03 in0.2 miCalmFogFog
4:55 AM46.4 °F44.6 °F93 %30.03 in0.2 miCalmFogFog
5:15 AM46.4 °F44.6 °F93 %30.04 in0.2 miCalmFogFog
5:35 AM46.4 °F44.6 °F93 %30.05 in0.2 miCalmFogFog
5:55 AM46.4 °F44.6 °F93 %30.05 in0.2 miCalmFogFog
6:15 AM46.4 °F44.6 °F93 %30.06 in0.2 miCalmFogFog
6:35 AM46.4 °F44.6 °F93 %30.06 in0.2 miCalmFogFog
6:55 AM46.4 °F44.6 °F93 %30.06 in0.2 miCalmFogFog
7:15 AM46.4 °F44.6 °F93 %30.07 in0.2 miCalmFogFog
7:35 AM46.4 °F44.6 °F93 %30.08 in0.2 miCalmFogFog
7:55 AM46.4 °F44.6 °F93 %30.08 in0.2 miCalmFogFog
8:15 AM46.4 °F44.6 °F93 %30.08 in0.2 miCalmFogFog
8:35 AM46.4 °F44.6 °F93 %30.09 in0.2 miCalmFogFog
8:55 AM48.2 °F46.4 °F93 %30.10 in0.2 miCalmFogFog
9:15 AM50.0 °F46.4 °F87 %30.10 in0.5 miCalmFogFog
9:35 AM50.0 °F46.4 °F87 %30.10 in0.8 miCalmOvercast
9:55 AM50.0 °F46.4 °F87 %30.10 in1.0 miCalmOvercast
10:15 AM50.0 °F48.2 °F94 %30.09 in4.0 miCalmOvercast
10:35 AM51.8 °F50.0 °F94 %30.10 in7.0 miCalmOvercast
10:55 AM53.6 °F50.0 °F88 %30.10 in10.0 miCalmOvercast
11:15 AM53.6 °F51.8 °F94 %30.09 in10.0 miNNW (340°)4.6 mphOvercast
11:35 AM55.4 °F53.6 °F94 %30.09 in10.0 miCalmMostly Cloudy
11:55 AM55.4 °F53.6 °F94 %30.08 in10.0 miCalmMostly Cloudy
12:15 PM55.4 °F53.6 °F94 %30.07 in10.0 miCalmMostly Cloudy
12:35 PM57.2 °F55.4 °F94 %30.06 in10.0 miCalmScattered Clouds
12:55 PM60.8 °F48.2 °F63 %30.05 in10.0 miCalmScattered Clouds
1:15 PM60.8 °F44.6 °F55 %30.04 in10.0 miWNW (290°)4.6 mphScattered Clouds
1:35 PM62.6 °F44.6 °F52 %30.04 in10.0 miNNW (340°)4.6 mphClear
1:55 PM62.6 °F42.8 °F48 %30.03 in10.0 miNorth (350°)4.6 mphClear
2:15 PM62.6 °F42.8 °F48 %30.02 in10.0 miCalmScattered Clouds
2:35 PM60.8 °F42.8 °F52 %30.02 in10.0 miNW (320°)4.6 mphClear
2:55 PM62.6 °F41.0 °F45 %30.01 in10.0 miNW (320°)4.6 mphClear
3:15 PM62.6 °F41.0 °F45 %30.01 in10.0 miCalmClear
3:35 PM62.6 °F41.0 °F45 %30.00 in10.0 miNW (320°)6.9 mphClear
3:55 PM62.6 °F41.0 °F45 %30.00 in10.0 miCalmClear
4:15 PM62.6 °F41.0 °F45 %30.00 in10.0 miNorth (10°)3.5 mphClear
4:35 PM62.6 °F41.0 °F45 %29.99 in10.0 miCalmClear
4:55 PM62.6 °F41.0 °F45 %29.99 in10.0 miNorth (360°)4.6 mphClear
5:15 PM62.6 °F41.0 °F45 %29.98 in10.0 miNorth (360°)4.6 mphClear
5:35 PM59.0 °F42.8 °F55 %29.98 in10.0 miNNW (340°)3.5 mphClear
5:55 PM57.2 °F44.6 °F63 %29.98 in10.0 miCalmClear
6:15 PM55.4 °F46.4 °F72 %29.99 in10.0 miCalmClear
6:35 PM53.6 °F46.4 °F77 %29.99 in10.0 miCalmClear
6:55 PM53.6 °F48.2 °F82 %29.99 in10.0 miCalmClear
7:15 PM53.6 °F48.2 °F82 %30.00 in10.0 miCalmClear
7:35 PM51.8 °F48.2 °F88 %30.00 in10.0 miCalmClear
7:55 PM51.8 °F48.2 °F88 %30.01 in10.0 miCalmClear
8:15 PM51.8 °F48.2 °F88 %30.02 in10.0 miCalmClear
8:35 PM50.0 °F46.4 °F87 %30.01 in10.0 miCalmClear
8:55 PM51.8 °F50.0 °F94 %30.02 in10.0 miCalmClear
9:15 PM50.0 °F48.2 °F94 %30.03 in10.0 miCalmClear
9:35 PM51.8 °F48.2 °F88 %30.03 in10.0 miCalmClear
9:55 PM50.0 °F48.2 °F94 %30.02 in10.0 miCalmClear
10:15 PM50.0 °F50.0 °F100 %30.04 in10.0 miCalmClear
10:35 PM50.0 °F50.0 °F100 %30.04 in10.0 miCalmClear
10:55 PM50.0 °F48.2 °F94 %30.03 in10.0 miCalmClear
11:15 PM50.0 °F48.2 °F94 %30.02 in10.0 miCalmClear
11:35 PM50.0 °F48.2 °F94 %30.02 in7.0 miCalmClear
11:55 PM50.0 °F50.0 °F100 %30.01 in7.0 miCalmClear
Hourly data recorded from KMDQ, located miles away from Fayetteville, Tennessee







STORIES FROM OUR PARTNERS